Regional Weather Roundup
Issued by NWS

Home | Current Version | Previous Version | Text Only | Print | Product List | Glossary On
Versions: 1 2 3 4 5 6 7 8 9 10 11 12 13 14 15 16 17 18 19 20 21 22 23 24 25 26 27
000
ASCA42 TJSJ 061310
RWRPR
PUERTO RICO/U.S. VIRGIN ISLANDS HOURLY WEATHER ROUNDUP
NATIONAL WEATHER SERVICE SAN JUAN PR
900 AM AST FRI MAY 06 2016

PRZ001-004-061400-
PUERTO RICO

CITY           SKY/WX    TMP DP  RH WIND       PRES   REMARKS
SAN JUAN LMM   MOSUNNY   86  77  74 SE8G20    29.92S HX  97
AGUADILLA      SUNNY     82  72  69 E3        29.93R
CEIBA          PTSUNNY   84  75  74 S15       29.96S HX  92
$$

PRZ006-007-061400-
U.S. VIRGIN ISLANDS

CITY           SKY/WX    TMP DP  RH WIND       PRES   REMARKS
CHARLOTTE AMA  MOSUNNY   84  79  84 SE15      29.94S HX  96
CHRISTIANSTED  MOSUNNY   84  75  74 SE12      29.96S HX  92
$$

HOURLY WEATHER ROUNDUP FOR THE NEWS MEDIA

CITY           SKY/WX    TMP DP  RH WIND       PRES   REMARKS
ORLANDO        SUNNY     65  44  46 N9        29.90R
NEW YORK       LGT RAIN  49  46  90 NE17G25   29.69S
NEWARK         LGT RAIN  48  46  93 NE16      29.69F FOG
CHICAGO        CLOUDY    55  42  61 W7        29.99S
HARTFORD       CLOUDY    50  44  80 NE14      29.78R
BOSTON         CLOUDY    51  44  77 NE9       29.81R
DALLAS         PTSUNNY   63  53  70 E6        30.09R
PHILADELPHIA   HVY RAIN  50  46  86 NE9       29.68S FOG
LOS ANGELES    MOCLDY    58  53  84 E3        29.84R
WASHINGTON DC  LGT RAIN  53  49  86 N8        29.69S



USA.gov is the U.S. government's official web portal to all federal, state and local government web resources and services.